�������l�o���
Date,Time,MP-1(��Sv/h),MP-2(��Sv/h),MP-3(��Sv/h),MP-4(��Sv/h),MP-5(��Sv/h),MP-6(��Sv/h),MP-7(��Sv/h),MP-8(��Sv/h),����,����(m/s),���J
2022/06/10,00:00,0.547,0.801,0.512,0.975,0.678,0.337,0.576,0.549,-,CALM,��
2022/06/10,00:10,0.549,0.803,0.513,0.974,0.678,0.337,0.577,0.547,�k��,1.1,��
2022/06/10,00:20,0.546,0.798,0.513,0.975,0.678,0.337,0.576,0.550,�k��,0.9,��
2022/06/10,00:30,0.549,0.801,0.511,0.974,0.677,0.337,0.575,0.548,�k�k��,0.8,��
2022/06/10,00:40,0.550,0.803,0.512,0.977,0.678,0.335,0.574,0.548,���k��,0.9,��
2022/06/10,00:50,0.549,0.801,0.513,0.975,0.679,0.336,0.575,0.550,���k��,1.4,��
2022/06/10,01:00,0.548,0.800,0.513,0.975,0.679,0.337,0.576,0.547,���k��,1.2,��
2022/06/10,01:10,0.548,0.801,0.512,0.975,0.677,0.336,0.575,0.548,-,CALM,��
2022/06/10,01:20,0.549,0.800,0.512,0.976,0.679,0.337,0.577,0.550,-,CALM,��
2022/06/10,01:30,0.548,0.801,0.513,0.974,0.677,0.337,0.576,0.550,�k,0.9,��
2022/06/10,01:40,0.548,0.802,0.513,0.976,0.678,0.336,0.576,0.548,�k,0.9,��
2022/06/10,01:50,0.550,0.802,0.513,0.974,0.678,0.336,0.576,0.549,�k�k��,1.2,��
2022/06/10,02:00,0.548,0.799,0.512,0.976,0.678,0.336,0.575,0.549,�k��,0.9,��
2022/06/10,02:10,0.548,0.801,0.514,0.976,0.678,0.337,0.577,0.548,�k�k��,0.9,��
2022/06/10,02:20,0.549,0.801,0.512,0.976,0.680,0.336,0.576,0.551,�k�k��,1.5,��
2022/06/10,02:30,0.548,0.800,0.513,0.975,0.680,0.339,0.576,0.548,�k,2.2,��
2022/06/10,02:40,0.548,0.800,0.512,0.976,0.679,0.337,0.576,0.549,�k,1.4,��
2022/06/10,02:50,0.549,0.801,0.515,0.976,0.678,0.337,0.576,0.549,�k�k��,2.2,��
2022/06/10,03:00,0.550,0.803,0.512,0.977,0.678,0.338,0.575,0.548,�k,2.0,��
2022/06/10,03:10,0.547,0.800,0.512,0.976,0.678,0.338,0.575,0.549,�k,1.7,��
2022/06/10,03:20,0.547,0.801,0.513,0.977,0.679,0.337,0.577,0.549,�k�k��,1.5,��
2022/06/10,03:30,0.548,0.800,0.514,0.976,0.679,0.337,0.577,0.549,�k�k��,1.5,��
2022/06/10,03:40,0.548,0.802,0.513,0.975,0.680,0.335,0.577,0.549,�k�k��,1.2,��
2022/06/10,03:50,0.548,0.801,0.513,0.977,0.678,0.338,0.576,0.550,�k�k��,0.9,��
2022/06/10,04:00,0.548,0.801,0.514,0.977,0.677,0.336,0.578,0.549,�k,0.8,��
2022/06/10,04:10,0.548,0.801,0.512,0.977,0.679,0.338,0.575,0.550,�k,1.1,��
2022/06/10,04:20,0.547,0.802,0.513,0.976,0.680,0.337,0.577,0.549,�k��,1.1,��
2022/06/10,04:30,0.548,0.800,0.514,0.975,0.679,0.336,0.576,0.549,�k��,0.6,��
2022/06/10,04:40,0.547,0.802,0.513,0.978,0.679,0.338,0.576,0.550,�k,0.6,��
2022/06/10,04:50,0.548,0.800,0.511,0.974,0.678,0.338,0.575,0.549,�k,0.6,��
2022/06/10,05:00,0.549,0.800,0.513,0.977,0.680,0.337,0.576,0.549,-,CALM,��
2022/06/10,05:10,0.549,0.800,0.515,0.977,0.678,0.339,0.576,0.549,��쐼,0.8,��
2022/06/10,05:20,0.548,0.801,0.514,0.976,0.680,0.337,0.575,0.548,�쓌,0.6,��
2022/06/10,05:30,0.548,0.803,0.512,0.976,0.680,0.336,0.576,0.550,-,CALM,��
2022/06/10,05:40,0.550,0.803,0.514,0.977,0.681,0.337,0.575,0.552,-,CALM,��
2022/06/10,05:50,0.550,0.802,0.513,0.975,0.680,0.338,0.575,0.549,-,CALM,��
2022/06/10,06:00,0.549,0.803,0.514,0.976,0.682,0.338,0.574,0.548,��,1.2,��
2022/06/10,06:10,0.550,0.802,0.513,0.977,0.681,0.338,0.574,0.548,-,CALM,��
2022/06/10,06:20,0.550,0.804,0.514,0.978,0.679,0.337,0.575,0.548,�k�k��,0.6,��
2022/06/10,06:30,0.552,0.805,0.516,0.978,0.681,0.337,0.575,0.547,-,CALM,��
2022/06/10,06:40,0.550,0.803,0.515,0.978,0.681,0.336,0.573,0.549,�k��,0.9,��
2022/06/10,06:50,0.549,0.803,0.515,0.977,0.680,0.334,0.575,0.548,�k��,0.9,��
2022/06/10,07:00,0.548,0.801,0.514,0.978,0.680,0.336,0.574,0.546,�k��,1.2,��
2022/06/10,07:10,0.550,0.800,0.514,0.976,0.679,0.335,0.574,0.548,�k��,0.6,��
2022/06/10,07:20,0.550,0.801,0.515,0.977,0.681,0.334,0.575,0.547,���k��,1.1,��
2022/06/10,07:30,0.549,0.800,0.514,0.976,0.679,0.336,0.574,0.547,�k��,1.5,��
2022/06/10,07:40,0.548,0.800,0.513,0.978,0.678,0.335,0.574,0.547,���k��,1.2,��
2022/06/10,07:50,0.548,0.801,0.513,0.978,0.679,0.334,0.574,0.548,�k��,1.2,��
2022/06/10,08:00,0.550,0.802,0.514,0.979,0.680,0.336,0.575,0.549,���k��,1.2,��
2022/06/10,08:10,0.548,0.799,0.513,0.977,0.681,0.336,0.576,0.547,��,1.7,��
2022/06/10,08:20,0.550,0.801,0.513,0.979,0.680,0.335,0.574,0.546,��,1.9,��
2022/06/10,08:30,0.548,0.799,0.514,0.976,0.682,0.335,0.575,0.548,��,1.7,��
2022/06/10,08:40,0.550,0.800,0.513,0.976,0.678,0.335,0.574,0.546,���k��,1.4,��
2022/06/10,08:50,0.549,0.800,0.514,0.978,0.679,0.336,0.574,0.547,���k��,1.1,��
2022/06/10,09:00,0.550,0.800,0.514,0.977,0.679,0.336,0.574,0.547,���k��,0.6,��
2022/06/10,09:10,0.549,0.801,0.512,0.977,0.679,0.334,0.575,0.549,���k��,1.9,��
2022/06/10,09:20,0.549,0.801,0.513,0.978,0.680,0.337,0.575,0.548,�k��,3.0,��
2022/06/10,09:30,0.549,0.800,0.512,0.977,0.680,0.337,0.576,0.548,�k��,3.1,��
2022/06/10,09:40,0.550,0.801,0.514,0.976,0.680,0.334,0.574,0.548,�k�k��,3.5,��
2022/06/10,09:50,0.551,0.803,0.515,0.979,0.680,0.335,0.576,0.547,�k��,2.6,��
2022/06/10,10:00,0.549,0.804,0.513,0.978,0.681,0.335,0.577,0.549,���k��,2.0,��
2022/06/10,10:10,0.549,0.803,0.513,0.979,0.680,0.336,0.577,0.546,���k��,2.3,��
2022/06/10,10:20,0.551,0.806,0.514,0.980,0.681,0.336,0.576,0.547,���k��,2.0,��
2022/06/10,10:30,0.550,0.804,0.515,0.978,0.682,0.336,0.576,0.549,���k��,2.3,��
2022/06/10,10:40,0.551,0.803,0.516,0.978,0.683,0.336,0.576,0.547,�k��,3.9,��
2022/06/10,10:50,0.551,0.806,0.516,0.980,0.681,0.337,0.577,-,�k��,3.2,��
2022/06/10,11:00,0.551,0.804,0.516,0.977,0.682,0.336,0.576,-,�k�k��,3.5,��
2022/06/10,11:10,0.551,0.804,0.513,0.976,0.683,0.337,0.578,-,�k��,2.9,��
2022/06/10,11:20,0.550,0.803,0.516,0.977,0.683,0.336,0.577,-,�k��,2.6,��
2022/06/10,11:30,0.552,0.804,0.515,0.978,0.683,0.337,0.577,-,�k�k��,3.1,��
2022/06/10,11:40,0.552,0.806,0.517,0.978,0.685,0.336,0.579,-,�k�k��,3.0,��
2022/06/10,11:50,0.552,0.807,0.517,0.977,0.685,0.337,0.578,-,�k��,1.7,��
2022/06/10,12:00,0.551,0.807,0.517,0.980,0.683,0.336,0.577,-,�k��,1.7,�L
2022/06/10,12:10,0.551,0.807,0.517,0.979,0.683,0.336,0.579,-,�k��,1.9,�L
2022/06/10,12:20,0.551,0.809,0.517,0.979,0.685,0.338,0.579,-,�k��,2.2,�L
2022/06/10,12:30,0.553,0.808,0.517,0.979,0.683,0.338,0.578,-,���k��,2.3,�L
2022/06/10,12:40,0.552,0.807,0.515,0.980,0.682,0.337,0.579,-,�k�k��,2.5,�L
2022/06/10,12:50,0.551,0.809,0.515,0.979,0.684,0.336,0.579,-,�k�k��,2.3,��
2022/06/10,13:00,0.552,0.807,0.516,0.980,0.684,0.336,0.578,-,�k��,2.5,��
2022/06/10,13:10,0.551,0.805,0.517,0.981,0.686,0.337,0.580,-,�k�k��,2.6,��
2022/06/10,13:20,0.551,0.807,0.517,0.981,0.685,0.334,0.579,-,�k�k��,3.1,��
2022/06/10,13:30,0.551,0.807,0.515,0.980,0.684,0.336,0.578,-,�k�k��,3.8,�L
2022/06/10,13:40,0.551,0.806,0.514,0.982,0.683,0.336,0.579,0.548,�k�k��,3.1,�L
2022/06/10,13:50,0.550,0.804,0.516,0.980,0.683,0.336,0.580,0.548,�k��,2.0,�L
2022/06/10,14:00,0.549,0.805,0.516,0.980,0.685,0.335,0.578,0.548,�k��,2.0,�L
2022/06/10,14:10,0.549,0.806,0.516,0.981,0.685,0.336,0.581,0.547,�k�k��,1.4,�L
2022/06/10,14:20,0.550,0.809,0.515,0.978,0.683,0.336,0.579,0.551,�k��,1.2,�L
2022/06/10,14:30,0.550,0.810,0.516,0.981,0.683,0.336,0.579,0.549,�k�k��,1.5,�L
2022/06/10,14:40,0.550,0.809,0.518,0.980,0.686,0.336,0.580,0.550,���쓌,1.2,�L
2022/06/10,14:50,0.551,0.811,0.517,0.982,0.685,0.338,0.581,0.547,��,1.5,�L
2022/06/10,15:00,0.552,0.810,0.518,0.983,0.686,0.338,0.581,0.550,���쓌,2.2,�L
2022/06/10,15:10,0.553,0.811,0.518,0.982,0.686,0.337,0.579,0.550,��,1.9,�L
2022/06/10,15:20,0.552,0.813,0.519,0.982,0.688,0.337,0.579,0.551,���쓌,1.7,�L
2022/06/10,15:30,0.553,0.811,0.520,0.983,0.687,0.337,0.580,0.551,�쓌,0.9,��
2022/06/10,15:40,0.552,0.814,0.519,0.982,0.685,0.338,0.581,0.549,��,1.5,��
2022/06/10,15:50,0.553,0.812,0.520,0.984,0.686,0.338,0.580,0.549,��,2.2,��
2022/06/10,16:00,0.552,0.810,0.519,0.983,0.688,0.338,0.579,0.549,��,1.7,��
2022/06/10,16:10,0.551,0.813,0.518,0.981,0.686,0.338,0.580,0.549,��,2.6,��
2022/06/10,16:20,0.551,0.809,0.517,0.982,0.686,0.338,0.579,0.550,��,3.5,��
2022/06/10,16:30,0.552,0.811,0.517,0.981,0.687,0.337,0.582,0.548,��쓌,4.0,��
2022/06/10,16:40,0.550,0.810,0.517,0.980,0.687,0.336,0.579,0.548,��쓌,4.5,��
2022/06/10,16:50,0.552,0.811,0.518,0.980,0.686,0.336,0.580,0.549,��쓌,3.8,��
2022/06/10,17:00,0.549,0.810,0.517,0.981,0.687,0.336,0.580,0.550,��쓌,4.7,��
2022/06/10,17:10,0.553,0.812,0.518,0.981,0.687,0.336,0.579,0.549,��,4.4,��
2022/06/10,17:20,0.555,0.811,0.517,0.979,0.688,0.337,0.579,0.548,��,3.1,��
2022/06/10,17:30,0.553,0.813,0.518,0.979,0.686,0.338,0.580,0.551,��,4.1,��
2022/06/10,17:40,0.552,0.813,0.516,0.978,0.686,0.338,0.580,0.550,��쓌,3.7,��
2022/06/10,17:50,0.552,0.814,0.518,0.982,0.685,0.338,0.580,0.549,��쓌,3.3,��
2022/06/10,18:00,0.553,0.815,0.518,0.980,0.687,0.338,0.580,0.549,��쓌,4.4,��
2022/06/10,18:10,0.552,0.816,0.517,0.980,0.686,0.338,0.580,0.549,��,4.3,��
2022/06/10,18:20,0.553,0.816,0.518,0.980,0.685,0.338,0.579,0.551,��,3.9,��
2022/06/10,18:30,0.555,0.815,0.516,0.982,0.686,0.337,0.581,0.551,��쓌,5.3,��
2022/06/10,18:40,0.554,0.816,0.518,0.984,0.685,0.337,0.580,0.551,��쓌,5.4,��
2022/06/10,18:50,0.555,0.816,0.519,0.982,0.688,0.338,0.580,0.550,��쓌,4.9,��
2022/06/10,19:00,0.554,0.816,0.517,0.982,0.686,0.337,0.580,0.550,��,4.0,��
2022/06/10,19:10,0.557,0.816,0.516,0.984,0.688,0.338,0.578,0.551,��쐼,3.9,��
2022/06/10,19:20,0.555,0.815,0.520,0.984,0.688,0.339,0.579,0.551,��쐼,2.0,��
2022/06/10,19:30,0.556,0.814,0.520,0.984,0.689,0.339,0.580,0.550,�쐼,1.2,��
2022/06/10,19:40,0.556,0.815,0.519,0.983,0.690,0.339,0.580,0.552,��,2.6,��
2022/06/10,19:50,0.555,0.815,0.520,0.984,0.688,0.339,0.582,0.551,��쐼,3.2,��
2022/06/10,20:00,0.555,0.815,0.520,0.984,0.689,0.341,0.581,0.551,��쐼,3.1,��
2022/06/10,20:10,0.556,0.815,0.521,0.984,0.689,0.340,0.580,0.552,�쐼,2.2,��
2022/06/10,20:20,0.554,0.815,0.519,0.984,0.690,0.339,0.581,0.550,��쐼,2.2,��
2022/06/10,20:30,0.556,0.814,0.519,0.982,0.690,0.339,0.580,0.552,��쐼,2.2,��
2022/06/10,20:40,0.555,0.814,0.519,0.985,0.688,0.339,0.581,0.553,�쐼,1.9,��
2022/06/10,20:50,0.554,0.812,0.518,0.983,0.690,0.339,0.580,0.552,�쐼,1.2,��
2022/06/10,21:00,0.555,0.814,0.517,0.983,0.689,0.338,0.581,0.550,�k��,0.9,��
2022/06/10,21:10,0.553,0.815,0.518,0.985,0.688,0.338,0.582,0.552,�k��,1.7,��
2022/06/10,21:20,0.554,0.812,0.518,0.986,0.690,0.339,0.581,0.552,�k��,1.9,��
2022/06/10,21:30,0.555,0.813,0.518,0.985,0.690,0.339,0.580,0.551,���k��,1.7,��
2022/06/10,21:40,0.554,0.812,0.519,0.984,0.688,0.337,0.581,0.552,���쐼,1.4,��
2022/06/10,21:50,0.555,0.815,0.517,0.985,0.691,0.338,0.581,0.552,���k��,1.1,��
2022/06/10,22:00,0.552,0.814,0.520,0.985,0.689,0.338,0.580,0.552,���쐼,1.2,��
2022/06/10,22:10,0.555,0.813,0.518,0.985,0.690,0.338,0.583,0.552,��,1.1,��
2022/06/10,22:20,0.553,0.815,0.519,0.986,0.689,0.338,0.581,0.553,���쐼,0.9,��
2022/06/10,22:30,0.554,0.814,0.519,0.984,0.690,0.338,0.580,0.551,��쐼,0.9,��
2022/06/10,22:40,0.553,0.813,0.519,0.984,0.688,0.339,0.580,0.553,�쐼,1.2,��
2022/06/10,22:50,0.553,0.813,0.520,0.987,0.691,0.339,0.581,0.551,�쐼,1.4,��
2022/06/10,23:00,0.555,0.813,0.520,0.985,0.690,0.339,0.583,0.551,��쐼,1.5,��
2022/06/10,23:10,0.554,0.813,0.518,0.986,0.689,0.339,0.580,0.550,��쐼,1.7,��
2022/06/10,23:20,0.555,0.813,0.519,0.986,0.689,0.341,0.582,0.552,��쐼,1.5,��
2022/06/10,23:30,0.553,0.812,0.519,0.985,0.689,0.340,0.582,0.553,��,1.1,��
2022/06/10,23:40,0.553,0.811,0.519,0.986,0.689,0.338,0.581,0.551,��,1.5,��
2022/06/10,23:50,0.554,0.814,0.518,0.983,0.688,0.341,0.580,0.551,-,CALM,��
